This demonstration page uses our WeatherBlox Daily Observations layout. Learn more.

40.92945, -100.16068

Hourly Observations for August 21, 2016

Temp ( °F °C ) Dew Point ( °F °C ) Humidity (%) Winds ( mph kmh ) Pressure ( in mb ) Visibility ( mi km ) Precip ( " mm )
12:15 am 00:15 Clear 53 11.6 50 10 90 90 W 3 6 30.03 1017 10 16.09344 0 0
12:35 am 00:35 Clear 52 11.2 49 9.5 89 89 W 3 6 30.03 1017 10 16.09344 0 0
12:55 am 00:55 Clear 51 10.6 48 8.7 88 88 Calm 30.03 1017 10 16.09344 0 0
1:15 am 01:15 Clear 51 10.6 49 9.3 92 92 NW 3 6 30.03 1017 10 16.09344 0 0
1:35 am 01:35 Clear 51 10.6 49 9.3 92 92 N 5 7 30.03 1017 10 16.09344 0 0
1:55 am 01:55 Clear 51 10.4 49 9.3 93 93 Calm 30.03 1017 10 16.09344 0 0
2:15 am 02:15 Clear 50 9.9 47 8.6 92 92 Calm 30.06 1018 7 11.265408 0 0
2:35 am 02:35 Clear 50 9.9 47 8.5 91 91 Calm 30.09 1019 10 16.09344 0 0
2:55 am 02:55 Clear 49 9.5 47 8.2 92 92 NW 5 7 30.06 1018 10 16.09344 0 0
3:15 am 03:15 Clear 49 9.3 46 7.9 91 91 SW 3 6 30.09 1019 10 16.09344 0 0
3:35 am 03:35 Clear 49 9.2 47 8.1 93 93 W 5 7 30.09 1019 10 16.09344 0 0
3:55 am 03:55 Clear 47 8.6 46 7.5 93 93 Calm 30.09 1019 10 16.09344 0 0
4:15 am 04:15 Clear 48 8.9 46 8 94 94 Calm 30.09 1019 10 16.09344 0 0
4:35 am 04:35 Clear 48 9 46 8 94 94 N 3 6 30.09 1019 10 16.09344 0 0
4:55 am 04:55 Clear 47 8.5 46 7.6 94 94 N 3 6 30.06 1018 10 16.09344 0 0
5:15 am 05:15 Clear 47 8.2 45 7.3 94 94 Calm 30.06 1018 10 16.09344 0 0
5:35 am 05:35 Clear 47 8.5 46 7.6 94 94 Calm 30.06 1018 10 16.09344 0 0
5:55 am 05:55 Clear 47 8.4 46 7.6 95 95 Calm 30.06 1018 10 16.09344 0 0
6:15 am 06:15 Clear 47 8.1 45 7.3 95 95 Calm 30.06 1018 10 16.09344 0 0
6:35 am 06:35 Clear 47 8.2 45 7.4 95 95 Calm 30.09 1019 10 16.09344 0 0
6:55 am 06:55 Clear 46 7.6 44 6.7 94 94 WSW 3 6 30.09 1019 10 16.09344 0 0
7:15 am 07:15 Sunny 46 7.5 44 6.6 94 94 Calm 30.09 1019 10 16.09344 0 0
7:35 am 07:35 Sunny 46 7.7 44 6.9 95 95 Calm 30.09 1019 10 16.09344 0 0
7:55 am 07:55 Sunny 49 9.5 48 8.7 95 95 Calm 30.09 1019 10 16.09344 0 0
8:15 am 08:15 Sunny 51 10.8 49 9.6 92 92 Calm 30.06 1018 10 16.09344 0 0
8:35 am 08:35 Sunny 54 12.2 51 10.6 90 90 Calm 30.09 1019 10 16.09344 0 0
8:55 am 08:55 Sunny 57 13.9 52 11.2 84 84 Calm 30.09 1019 10 16.09344 0 0
9:15 am 09:15 Sunny 61 16 53 11.4 74 74 Calm 30.03 1017 10 16.09344 0 0
9:35 am 09:35 Sunny 63 17.4 53 11.9 70 70 S 3 6 30 1016 10 16.09344 0 0
9:55 am 09:55 Sunny 65 18.6 54 12.3 67 67 S 3 6 30 1016 10 16.09344 0 0
10:15 am 10:15 Sunny 69 20.3 54 12.3 60 60 SSE 7 11 30 1016 10 16.09344 0 0
10:35 am 10:35 Sunny 71 21.6 52 11.2 52 52 S 5 7 29.97 1015 10 16.09344 0 0
10:55 am 10:55 Sunny 73 22.6 51 10.6 47 47 SSW 8 13 29.97 1015 10 16.09344 0 0
11:15 am 11:15 Sunny 74 23.5 50 10 43 43 SSW 10 17 29.97 1015 10 16.09344 0 0
11:35 am 11:35 Sunny 75 24 51 10.5 43 43 SSW 8 13 29.94 1014 10 16.09344 0 0
11:55 am 11:55 Sunny 76 24.6 51 10.7 42 42 S 7 11 29.91 1013 10 16.09344 0 0
12:15 pm 12:15 Sunny 77 25.1 50 10.1 39 39 S 9 15 29.91 1013 10 16.09344 0 0
12:35 pm 12:35 Sunny 78 25.8 49 9.2 35 35 SSW 9 15 29.91 1013 10 16.09344 0 0
12:55 pm 12:55 Sunny 80 26.4 49 9.3 34 34 S 14 22 29.91 1013 10 16.09344 0 0
1:15 pm 13:15 Sunny 80 26.6 50 10.1 36 36 S 9 15 29.91 1013 10 16.09344 0 0
1:35 pm 13:35 Sunny 81 27 51 10.7 36 36 S 14 22 29.91 1013 10 16.09344 0 0
1:55 pm 13:55 Sunny 82 27.5 52 11.1 36 36 S 12 19 29.88 1012 10 16.09344 0 0
2:15 pm 14:15 Sunny 82 28 52 10.9 34 34 SSW 12 19 29.88 1012 10 16.09344 0 0
2:35 pm 14:35 Sunny 83 28.5 51 10.3 32 32 S 14 22 29.88 1012 10 16.09344 0 0
2:55 pm 14:55 Sunny 83 28.6 50 10 31 31 S 10 17 29.88 1012 10 16.09344 0 0
3:15 pm 15:15 Sunny 84 29 50 10.1 31 31 S 10 17 29.85 1011 10 16.09344 0 0
3:35 pm 15:35 Sunny 85 29.4 50 10.2 30 30 SSW 14 22 29.85 1011 10 16.09344 0 0
3:55 pm 15:55 Sunny 85 29.6 51 10.4 30 30 S 12 19 29.85 1011 10 16.09344 0 0
4:15 pm 16:15 Sunny 85 29.5 52 11.1 32 32 S 13 20 29.83 1010 10 16.09344 0 0
4:35 pm 16:35 Sunny 85 29.5 50 10.2 30 30 S 14 22 29.83 1010 10 16.09344 0 0
4:55 pm 16:55 Sunny 85 29.5 52 11 32 32 SSE 14 22 29.83 1010 10 16.09344 0 0
5:15 pm 17:15 Sunny 85 29.5 53 11.5 33 33 S 16 26 29.83 1010 10 16.09344 0 0
5:35 pm 17:35 Sunny 84 29 52 10.9 33 33 SSE 14 22 29.83 1010 10 16.09344 0 0
5:55 pm 17:55 Sunny 84 28.7 53 11.6 35 35 SSE 15 24 29.83 1010 10 16.09344 0 0
6:15 pm 18:15 Sunny 83 28.2 53 11.9 36 36 SSE 17 28 29.8 1009 10 16.09344 0 0
6:35 pm 18:35 Sunny 82 27.9 53 11.6 36 36 SSE 15 24 29.8 1009 10 16.09344 0 0
6:55 pm 18:55 Sunny 81 27.3 53 11.8 38 38 SSE 15 24 29.8 1009 10 16.09344 0 0
7:15 pm 19:15 Sunny 80 26.7 53 11.9 40 40 SSE 14 22 29.8 1009 10 16.09344 0 0
7:35 pm 19:35 Sunny 79 26.1 53 11.7 41 41 SE 12 19 29.83 1010 10 16.09344 0 0
7:55 pm 19:55 Sunny 77 25.2 55 12.5 45 45 SE 12 19 29.83 1010 10 16.09344 0 0
8:15 pm 20:15 Sunny 76 24.5 54 12 46 46 SE 14 22 29.83 1010 10 16.09344 0 0
8:35 pm 20:35 Clear 75 23.7 53 11.5 46 46 SE 12 19 29.83 1010 10 16.09344 0 0
8:55 pm 20:55 Clear 74 23.1 53 11.7 49 49 SE 12 19 29.83 1010 10 16.09344 0 0
9:15 pm 21:15 Clear 73 22.5 54 12 52 52 SE 13 20 29.85 1011 10 16.09344 0 0
9:35 pm 21:35 Clear 71 21.8 53 11.8 53 53 SE 13 20 29.88 1012 10 16.09344 0 0
9:55 pm 21:55 Clear 71 21.5 53 11.7 54 54 SSE 10 17 29.88 1012 10 16.09344 0 0
10:15 pm 22:15 Clear 69 20.8 54 12 57 57 SSE 12 19 29.88 1012 10 16.09344 0 0
10:35 pm 22:35 Clear 70 20.9 53 11.8 56 56 SSE 13 20 29.88 1012 10 16.09344 0 0
10:55 pm 22:55 Clear 69 20.5 53 11.7 57 57 SSE 13 20 29.88 1012 10 16.09344 0 0
11:15 pm 23:15 Clear 69 20.8 53 11.6 56 56 SSE 13 20 29.88 1012 10 16.09344 0 0
11:35 pm 23:35 Clear 69 20.7 53 11.5 56 56 SSE 13 20 29.88 1012 10 16.09344 0 0
11:55 pm 23:55 Clear 70 20.9 52 11.3 54 54 SSE 13 20 29.88 1012 10 16.09344 0 0

Powered by AerisWeather